Worthington, MN

1:58 AM CDT on August 23, 2017 (GMT -0500)
Worthington Municipal

Weather History for KOTG - March, 2012

Change the Weather History Date:

Tuesday, March 13, 2012

  Actual Average Record
Temperature  
Mean Temperature 51 °F -  
Max Temperature 69 °F 32 °F 69 °F (2012)
Min Temperature 33 °F 18 °F -10 °F (1975)
Degree Days  
Heating Degree Days 14    
Growing Degree Days 1 (Base 50)    
Moisture  
Dew Point 39 °F    
Average Humidity 64    
Maximum Humidity 87    
Minimum Humidity 43    
Precipitation  
Precipitation 0.00 in - - ()
Sea Level Pressure  
Sea Level Pressure 29.90 in    
Wind  
Wind Speed 10 mph (South)    
Max Wind Speed 24 mph    
Max Gust Speed 30 mph    
Visibility 10 miles    
Events      
Averages and records for this station are not official NWS values.
T = Trace of Precipitation, MM = Missing Value Source: NWS Daily Summary

Daily Weather History Graph

Daily Weather History Graph

Search for Another Location

Airport or City:

Trip Planner

Search our weather history database for the weather conditions in past years. The results will help you decide how hot, cold, wet, or windy it might be!

Date:

Astronomy

Mar. 13, 2012 Rise Set
Actual Time 7:37 AM CDT 7:26 PM CDT
Civil Twilight 7:08 AM CDT 7:55 PM CDT
Nautical Twilight 6:35 AM CDT 8:28 PM CDT
Astronomical Twilight 6:01 AM CDT 9:02 PM CDT
Moon 1:11 AM CDT (3/13) 10:38 AM CDT (3/13)
Length of Visible Light 12h 46m
Length of Day
11h 49m
Waning Gibbous, 65% of the Moon is Illuminated
Mar 13
Waning Gibbous
Mar 14
Last Quarter
Mar 22
New
Mar 30
First Quarter
Apr 6
Full

Hourly Weather History & Observations

Time (CDT) Temp. Windchill Dew Point Humidity Pressure Visibility Wind Dir Wind Speed Gust Speed Precip Events Conditions
12:15 AM 41.0 °F 36.4 °F 33.8 °F 76% 29.91 in 10.0 mi SW 6.9 mph - N/A   Clear
12:35 AM 39.2 °F 33.0 °F 33.8 °F 81% 29.91 in 10.0 mi SW 9.2 mph - N/A   Clear
12:55 AM 39.2 °F 35.9 °F 33.8 °F 81% 29.91 in 10.0 mi WSW 4.6 mph - N/A   Clear
1:15 AM 37.4 °F 32.1 °F 32.0 °F 81% 29.91 in 10.0 mi WSW 6.9 mph - N/A   Clear
1:35 AM 37.4 °F 31.4 °F 33.8 °F 87% 29.92 in 10.0 mi SW 8.1 mph - N/A   Clear
1:55 AM 39.2 °F 34.2 °F 33.8 °F 81% 29.92 in 10.0 mi SW 6.9 mph - N/A   Clear
2:15 AM 37.4 °F 32.1 °F 30.2 °F 75% 29.93 in 10.0 mi SW 6.9 mph - N/A   Clear
2:35 AM 39.2 °F 35.0 °F 33.8 °F 81% 29.93 in 10.0 mi SSW 5.8 mph - N/A   Clear
2:55 AM 37.4 °F 31.4 °F 33.8 °F 87% 29.93 in 10.0 mi SW 8.1 mph - N/A   Clear
3:15 AM 37.4 °F 32.1 °F 32.0 °F 81% 29.94 in 10.0 mi SW 6.9 mph - N/A   Clear
3:35 AM 37.4 °F 33.8 °F 33.8 °F 87% 29.94 in 9.0 mi SSW 4.6 mph - N/A   Clear
3:55 AM 37.4 °F 33.8 °F 33.8 °F 87% 29.94 in 10.0 mi SW 4.6 mph - N/A   Clear
4:15 AM 37.4 °F 32.8 °F 32.0 °F 81% 29.94 in 10.0 mi SW 5.8 mph - N/A   Clear
4:35 AM 33.8 °F 27.7 °F 30.2 °F 87% 29.95 in 8.0 mi SSW 6.9 mph - N/A   Clear
4:55 AM 33.8 °F 27.0 °F 28.4 °F 81% 29.95 in 8.0 mi SSW 8.1 mph - N/A   Clear
5:15 AM 35.6 °F 30.7 °F 30.2 °F 81% 29.95 in 10.0 mi SSW 5.8 mph - N/A   Clear
5:35 AM 37.4 °F 33.8 °F 33.8 °F 87% 29.95 in 10.0 mi SSW 4.6 mph - N/A   Clear
5:55 AM 33.8 °F 27.0 °F 28.4 °F 81% 29.95 in 9.0 mi South 8.1 mph - N/A   Clear
6:15 AM 33.8 °F 28.6 °F 30.2 °F 87% 29.95 in 10.0 mi South 5.8 mph - N/A   Clear
6:35 AM 35.6 °F 29.2 °F 30.2 °F 81% 29.96 in 10.0 mi South 8.1 mph - N/A   Clear
7:15 AM 37.4 °F 30.8 °F 33.8 °F 87% 29.96 in 10.0 mi South 9.2 mph - N/A   Clear
7:55 AM 37.4 °F 34.9 °F 33.8 °F 87% 29.96 in 10.0 mi SSE 3.5 mph - N/A   Clear
8:15 AM 39.2 °F 37.0 °F 32.0 °F 75% 29.96 in 10.0 mi SSE 3.5 mph - N/A   Clear
8:35 AM 39.2 °F 35.0 °F 32.0 °F 75% 29.96 in 10.0 mi SSE 5.8 mph - N/A   Clear
8:55 AM 39.2 °F 34.2 °F 33.8 °F 81% 29.96 in 10.0 mi SSE 6.9 mph - N/A   Clear
9:15 AM 42.8 °F 40.1 °F 35.6 °F 76% 29.96 in 10.0 mi SE 4.6 mph - N/A   Clear
9:35 AM 44.6 °F 40.7 °F 37.4 °F 76% 29.96 in 10.0 mi SSE 6.9 mph - N/A   Clear
9:55 AM 48.2 °F - 37.4 °F 66% 29.97 in 10.0 mi SSE 9.2 mph - N/A   Clear
10:15 AM 50.0 °F - 35.6 °F 58% 29.96 in 10.0 mi SSE 15.0 mph 19.6 mph N/A   Clear
10:35 AM 51.8 °F - 35.6 °F 54% 29.96 in 10.0 mi SSE 15.0 mph 19.6 mph N/A   Clear
10:55 AM 53.6 °F - 35.6 °F 51% 29.95 in 10.0 mi SSE 16.1 mph 21.9 mph N/A   Clear
11:15 AM 53.6 °F - 37.4 °F 54% 29.95 in 10.0 mi SSE 15.0 mph 18.4 mph N/A   Clear
11:35 AM 55.4 °F - 35.6 °F 47% 29.95 in 10.0 mi SSE 16.1 mph 24.2 mph N/A   Clear
11:55 AM 55.4 °F - 37.4 °F 51% 29.94 in 10.0 mi SSE 20.7 mph 24.2 mph N/A   Clear
12:15 PM 57.2 °F - 39.2 °F 51% 29.93 in 10.0 mi SSE 18.4 mph 23.0 mph N/A   Clear
12:35 PM 59.0 °F - 39.2 °F 48% 29.92 in 10.0 mi SSE 18.4 mph 27.6 mph N/A   Clear
12:55 PM 60.8 °F - 42.8 °F 52% 29.91 in 10.0 mi SSE 16.1 mph 25.3 mph N/A   Clear
1:15 PM 60.8 °F - 42.8 °F 52% 29.92 in 10.0 mi SSE 21.9 mph 26.5 mph N/A   Clear
1:35 PM 62.6 °F - 44.6 °F 52% 29.90 in 10.0 mi South 21.9 mph 27.6 mph N/A   Clear
1:55 PM 64.4 °F - 46.4 °F 52% 29.89 in 10.0 mi South 20.7 mph 26.5 mph N/A   Clear
2:15 PM 64.4 °F - 46.4 °F 52% 29.88 in 10.0 mi South 20.7 mph 27.6 mph N/A   Clear
2:35 PM 66.2 °F - 46.4 °F 49% 29.87 in 10.0 mi SSE 21.9 mph 29.9 mph N/A   Clear
2:55 PM 68.0 °F - 46.4 °F 46% 29.87 in 10.0 mi SSE 20.7 mph 25.3 mph N/A   Clear
3:15 PM 68.0 °F - 46.4 °F 46% 29.85 in 10.0 mi South 24.2 mph 27.6 mph N/A   Clear
3:35 PM 69.8 °F - 46.4 °F 43% 29.84 in 10.0 mi SSE 21.9 mph 27.6 mph N/A   Clear
3:55 PM 69.8 °F - 46.4 °F 43% 29.84 in 10.0 mi South 20.7 mph 26.5 mph N/A   Clear
4:15 PM 69.8 °F - 46.4 °F 43% 29.83 in 10.0 mi SSE 19.6 mph 24.2 mph N/A   Clear
4:35 PM 69.8 °F - 46.4 °F 43% 29.82 in 10.0 mi SSE 20.7 mph 25.3 mph N/A   Clear
4:55 PM 69.8 °F - 46.4 °F 43% 29.81 in 10.0 mi SSE 17.3 mph - N/A   Clear
5:15 PM 69.8 °F - 46.4 °F 43% 29.81 in 10.0 mi SSE 17.3 mph 21.9 mph N/A   Clear
5:55 PM 69.8 °F - 46.4 °F 43% 29.84 in 10.0 mi SSE 12.7 mph - N/A   Clear
6:15 PM 69.8 °F - 46.4 °F 43% 29.83 in 10.0 mi SSE 15.0 mph - N/A   Clear
6:35 PM 68.0 °F - 46.4 °F 46% 29.83 in 10.0 mi SSE 15.0 mph - N/A   Clear
6:55 PM 66.2 °F - 46.4 °F 49% 29.82 in 10.0 mi SSE 12.7 mph 18.4 mph N/A   Clear
7:15 PM 64.4 °F - 46.4 °F 52% 29.82 in 10.0 mi SSE 12.7 mph - N/A   Clear
7:35 PM 64.4 °F - 44.6 °F 49% 29.80 in 10.0 mi SSE 11.5 mph - N/A   Clear
7:55 PM 62.6 °F - 44.6 °F 52% 29.80 in 10.0 mi SSE 11.5 mph - N/A   Clear
8:15 PM 60.8 °F - 44.6 °F 55% 29.78 in 10.0 mi SSE 13.8 mph - N/A   Clear
8:35 PM 60.8 °F - 44.6 °F 55% 29.77 in 10.0 mi SSE 12.7 mph - N/A   Clear
8:55 PM 59.0 °F - 44.6 °F 59% 29.77 in 10.0 mi SSE 13.8 mph 19.6 mph N/A   Clear
9:15 PM 60.8 °F - 42.8 °F 52% 29.77 in 10.0 mi SSE 17.3 mph 21.9 mph N/A   Clear
9:35 PM 59.0 °F - 42.8 °F 55% 29.79 in 10.0 mi SSE 15.0 mph 21.9 mph N/A   Clear
9:55 PM 57.2 °F - 42.8 °F 59% 29.77 in 10.0 mi SSE 17.3 mph - N/A   Clear
10:15 PM 57.2 °F - 42.8 °F 59% 29.77 in 10.0 mi SSE 18.4 mph - N/A   Clear
10:35 PM 57.2 °F - 42.8 °F 59% 29.77 in 10.0 mi SSE 15.0 mph 21.9 mph N/A   Clear
10:55 PM 57.2 °F - 42.8 °F 59% 29.77 in 10.0 mi SSE 16.1 mph 21.9 mph N/A   Clear
11:15 PM 57.2 °F - 42.8 °F 59% 29.76 in 10.0 mi SSE 16.1 mph 23.0 mph N/A   Clear
11:35 PM 57.2 °F - 42.8 °F 59% 29.75 in 10.0 mi SSE 12.7 mph 18.4 mph N/A   Clear
11:55 PM 55.4 °F - 42.8 °F 63% 29.75 in 10.0 mi SSE 12.7 mph - N/A   Clear